﻿#観測日時,平均風速,平均風向,最大風速,最大風速発生風向,最大瞬間風速,最大瞬間風速発生風向
#(年月日),(m/s)   ,(16方位),(m/s)   ,(16方位)        ,(m/s)       ,(16方位)            
2020/5/24 0:01,1.1,1,1.1,1,2,3
2020/5/24 0:02,1.1,1,1.1,1,2.1,2
2020/5/24 0:03,1.1,1,1.1,1,1.6,1
2020/5/24 0:04,1.2,1,1.2,1,2.5,16
2020/5/24 0:05,1.2,1,1.2,1,2,1
2020/5/24 0:06,1.3,1,1.3,1,2.2,1
2020/5/24 0:07,1.3,1,1.3,1,2.1,2
2020/5/24 0:08,1.4,1,1.4,1,2.2,2
2020/5/24 0:09,1.4,1,1.4,1,2.4,2
2020/5/24 0:10,1.4,1,1.4,1,2.6,2
2020/5/24 0:11,1.5,1,1.5,1,3.6,3
2020/5/24 0:12,1.6,1,1.6,1,3,2
2020/5/24 0:13,1.7,1,1.7,1,3.1,1
2020/5/24 0:14,1.7,1,1.7,1,2.4,2
2020/5/24 0:15,1.8,1,1.8,1,2.2,1
2020/5/24 0:16,1.7,1,1.8,1,2.2,2
2020/5/24 0:17,1.7,1,1.8,1,2.4,1
2020/5/24 0:18,1.8,1,1.8,1,3.1,3
2020/5/24 0:19,1.8,1,1.8,1,2.2,1
2020/5/24 0:20,1.8,1,1.8,1,2.1,1
2020/5/24 0:21,1.7,1,1.8,1,2,1
2020/5/24 0:22,1.6,1,1.7,1,1.9,2
2020/5/24 0:23,1.6,1,1.6,1,2.7,1
2020/5/24 0:24,1.6,1,1.6,1,2.2,16
2020/5/24 0:25,1.6,1,1.6,1,2.7,1
2020/5/24 0:26,1.7,1,1.7,1,2.7,1
2020/5/24 0:27,1.7,1,1.7,1,2.9,1
2020/5/24 0:28,1.7,1,1.7,1,2.5,2
2020/5/24 0:29,1.7,1,1.7,1,2.9,16
2020/5/24 0:30,1.7,1,1.7,1,2.6,2
2020/5/24 0:31,1.8,1,1.8,1,2.5,2
2020/5/24 0:32,1.8,1,1.8,1,2.4,1
2020/5/24 0:33,1.8,1,1.8,1,2.2,1
2020/5/24 0:34,1.8,1,1.8,1,1.9,1
2020/5/24 0:35,1.7,1,1.8,1,1.9,1
2020/5/24 0:36,1.7,1,1.7,1,2.1,1
2020/5/24 0:37,1.7,1,1.7,1,2.5,1
2020/5/24 0:38,1.7,1,1.7,1,2.4,2
2020/5/24 0:39,1.6,1,1.7,1,2.2,16
2020/5/24 0:40,1.6,1,1.6,1,2.4,1
2020/5/24 0:41,1.6,1,1.6,1,2.1,2
2020/5/24 0:42,1.6,1,1.6,1,2.4,2
2020/5/24 0:43,1.5,1,1.5,1,2.2,2
2020/5/24 0:44,1.5,1,1.5,1,2,1
2020/5/24 0:45,1.6,1,1.6,1,2.7,2
2020/5/24 0:46,1.7,1,1.7,1,3.8,2
2020/5/24 0:47,1.7,1,1.7,1,3.1,1
2020/5/24 0:48,1.7,1,1.7,1,2.9,1
2020/5/24 0:49,1.8,2,1.8,2,2.9,2
2020/5/24 0:50,1.8,2,1.8,2,2.9,2
2020/5/24 0:51,1.9,2,1.9,2,3.6,2
2020/5/24 0:52,1.9,2,1.9,2,2.6,16
2020/5/24 0:53,1.9,2,1.9,2,2.1,1
2020/5/24 0:54,1.9,2,1.9,2,2.2,2
2020/5/24 0:55,1.9,2,1.9,2,2.5,2
2020/5/24 0:56,1.8,2,1.9,2,2.5,2
2020/5/24 0:57,1.8,2,1.8,2,2.1,1
2020/5/24 0:58,1.7,2,1.8,2,2.2,2
2020/5/24 0:59,1.7,2,1.7,2,2,2
2020/5/24 1:00,1.6,2,1.7,2,2.4,2
2020/5/24 1:01,1.5,2,1.6,2,2.6,2
2020/5/24 1:02,1.5,2,1.5,2,2.1,2
2020/5/24 1:03,1.5,2,1.5,2,2.7,2
2020/5/24 1:04,1.5,2,1.6,2,2.9,2
2020/5/24 1:05,1.5,2,1.6,2,2.2,2
2020/5/24 1:06,1.5,2,1.5,2,2.5,1
2020/5/24 1:07,1.5,2,1.5,2,3.2,2
2020/5/24 1:08,1.7,2,1.7,2,4.1,1
2020/5/24 1:09,1.8,2,1.8,2,4.2,2
2020/5/24 1:10,1.8,2,1.8,2,3.2,2
2020/5/24 1:11,1.9,2,1.9,2,3.7,1
2020/5/24 1:12,2,2,2,2,3.8,1
2020/5/24 1:13,2,2,2,2,2.5,2
2020/5/24 1:14,2,2,2,2,2.2,1
2020/5/24 1:15,2,2,2,2,2.6,1
2020/5/24 1:16,2,2,2,2,2.6,2
2020/5/24 1:17,2,2,2,2,2.7,3
2020/5/24 1:18,1.9,2,2,2,3.2,1
2020/5/24 1:19,1.8,2,1.9,2,2.5,2
2020/5/24 1:20,1.8,2,1.8,2,2.7,1
2020/5/24 1:21,1.7,2,1.8,2,1.8,2
2020/5/24 1:22,1.6,2,1.7,2,2.2,1
2020/5/24 1:23,1.6,2,1.6,2,2.7,2
2020/5/24 1:24,1.6,2,1.6,2,2.7,2
2020/5/24 1:25,1.7,2,1.7,2,3.7,2
2020/5/24 1:26,1.7,2,1.7,2,2.7,2
2020/5/24 1:27,1.7,2,1.7,2,2.7,2
2020/5/24 1:28,1.7,2,1.7,2,2.9,2
2020/5/24 1:29,1.7,2,1.8,2,3,2
2020/5/24 1:30,1.7,2,1.7,2,3.2,1
2020/5/24 1:31,1.9,2,1.9,2,4.2,2
2020/5/24 1:32,1.9,2,1.9,2,3.2,1
2020/5/24 1:33,2,2,2,2,3.6,4
2020/5/24 1:34,1.9,2,2,2,2.5,3
2020/5/24 1:35,1.9,2,1.9,2,2.6,1
2020/5/24 1:36,1.9,2,1.9,2,3.1,3
2020/5/24 1:37,1.9,2,1.9,2,2.9,3
2020/5/24 1:38,1.9,2,1.9,2,3.1,3
2020/5/24 1:39,1.9,2,1.9,2,3.9,2
2020/5/24 1:40,2,2,2,2,3.5,2
2020/5/24 1:41,1.8,2,1.9,2,3.1,1
2020/5/24 1:42,1.9,2,1.9,2,3.2,3
2020/5/24 1:43,2,2,2,2,3.8,2
2020/5/24 1:44,2,2,2,2,3.1,2
2020/5/24 1:45,2,2,2,2,3.3,3
2020/5/24 1:46,2,2,2,2,3,2
2020/5/24 1:47,2,2,2,2,3.1,2
2020/5/24 1:48,2,2,2,2,2.9,2
2020/5/24 1:49,1.9,2,2,2,2.6,3
2020/5/24 1:50,1.9,2,1.9,2,3,2
2020/5/24 1:51,1.9,2,1.9,2,2.6,2
2020/5/24 1:52,2,2,2,2,4.1,2
2020/5/24 1:53,1.9,2,2,2,3.1,2
2020/5/24 1:54,1.8,2,1.9,2,2.9,1
2020/5/24 1:55,1.8,2,1.8,2,3.1,2
2020/5/24 1:56,1.8,2,1.8,2,2.5,3
2020/5/24 1:57,1.8,2,1.8,2,2.6,1
2020/5/24 1:58,1.9,2,1.9,2,3.5,2
2020/5/24 1:59,1.8,2,1.9,2,3.1,2
2020/5/24 2:00,2,2,2,2,4.2,3
2020/5/24 2:01,2,2,2,2,4.2,2
2020/5/24 2:02,2,2,2,2,4.8,2
2020/5/24 2:03,2,2,2,2,4.3,2
2020/5/24 2:04,2.1,2,2.1,2,3,1
2020/5/24 2:05,2,2,2.1,2,2.7,2
2020/5/24 2:06,2.1,2,2.1,2,3.3,2
2020/5/24 2:07,2.2,2,2.2,2,3.2,3
2020/5/24 2:08,2.2,2,2.2,2,2.9,1
2020/5/24 2:09,2.2,2,2.2,2,3.6,1
2020/5/24 2:10,2.1,2,2.2,2,2.6,1
2020/5/24 2:11,2.1,2,2.1,2,3.7,2
2020/5/24 2:12,2.1,2,2.1,2,3.6,2
2020/5/24 2:13,2,2,2.1,2,3,2
2020/5/24 2:14,2.1,2,2.1,2,3.3,2
2020/5/24 2:15,2.1,2,2.1,2,3,2
2020/5/24 2:16,2.1,2,2.1,2,3.9,2
2020/5/24 2:17,2.1,2,2.1,2,4.2,2
2020/5/24 2:18,2.1,2,2.1,2,3.3,2
2020/5/24 2:19,2,2,2.1,2,2.7,3
2020/5/24 2:20,2.1,2,2.1,2,4.1,2
2020/5/24 2:21,2.1,2,2.1,2,2.2,3
2020/5/24 2:22,2,2,2.1,2,2.2,3
2020/5/24 2:23,2,2,2,2,3.1,3
2020/5/24 2:24,2,2,2,2,2.9,3
2020/5/24 2:25,2,2,2.1,2,3.1,4
2020/5/24 2:26,2.1,2,2.1,2,4.3,3
2020/5/24 2:27,2.1,2,2.2,2,3.7,3
2020/5/24 2:28,2.2,2,2.2,2,3.3,3
2020/5/24 2:29,2.1,2,2.2,2,3.6,2
2020/5/24 2:30,2.1,2,2.1,2,3.3,2
2020/5/24 2:31,2.1,2,2.1,2,3.2,1
2020/5/24 2:32,2.2,2,2.2,2,3.2,3
2020/5/24 2:33,2.2,2,2.2,2,3.9,2
2020/5/24 2:34,2.3,2,2.3,2,4.2,2
2020/5/24 2:35,2.2,2,2.2,2,2.7,2
2020/5/24 2:36,2.2,2,2.2,2,3.9,3
2020/5/24 2:37,2.2,2,2.2,2,3.9,2
2020/5/24 2:38,2.2,2,2.2,2,3.7,2
2020/5/24 2:39,2.3,2,2.3,2,3.9,3
2020/5/24 2:40,2.3,2,2.3,2,3.7,16
2020/5/24 2:41,2.3,2,2.3,2,4.2,2
2020/5/24 2:42,2.3,2,2.3,2,3.8,2
2020/5/24 2:43,2.4,2,2.4,2,5.1,2
2020/5/24 2:44,2.4,2,2.4,2,4.5,2
2020/5/24 2:45,2.5,2,2.5,2,4.1,3
2020/5/24 2:46,2.4,2,2.5,2,2.7,2
2020/5/24 2:47,2.3,2,2.4,2,3.6,1
2020/5/24 2:48,2.3,2,2.3,2,4.2,3
2020/5/24 2:49,2.3,2,2.3,2,4.7,3
2020/5/24 2:50,2.5,2,2.5,2,4.8,3
2020/5/24 2:51,2.5,2,2.5,2,4.1,3
2020/5/24 2:52,2.5,2,2.5,2,3,2
2020/5/24 2:53,2.4,2,2.5,2,2.9,3
2020/5/24 2:54,2.3,2,2.4,2,2.7,2
2020/5/24 2:55,2.3,2,2.3,2,3.5,3
2020/5/24 2:56,2.3,2,2.3,2,3.1,3
2020/5/24 2:57,2.3,2,2.3,2,2.4,3
2020/5/24 2:58,2.2,2,2.3,2,2.1,3
2020/5/24 2:59,2,2,2.2,2,2.7,2
2020/5/24 3:00,2,2,2,2,2.7,3
2020/5/24 3:01,1.9,2,2,2,3.6,3
2020/5/24 3:02,1.9,2,1.9,2,3.8,3
2020/5/24 3:03,1.9,2,1.9,2,3.2,3
2020/5/24 3:04,1.9,2,1.9,2,3,3
2020/5/24 3:05,1.9,2,1.9,2,3.8,3
2020/5/24 3:06,1.9,2,2,2,3.8,3
2020/5/24 3:07,2,2,2,2,3.1,3
2020/5/24 3:08,2,2,2,2,3.2,2
2020/5/24 3:09,2,2,2,2,3.8,2
2020/5/24 3:10,2,2,2.1,2,3.8,1
2020/5/24 3:11,2.1,2,2.1,2,3.5,3
2020/5/24 3:12,2,2,2.1,2,2.9,3
2020/5/24 3:13,2.1,2,2.1,2,4.1,3
2020/5/24 3:14,2.2,2,2.2,2,3.8,2
2020/5/24 3:15,2.2,2,2.2,2,4.3,3
2020/5/24 3:16,2.2,2,2.2,2,4.2,3
2020/5/24 3:17,2.3,2,2.3,2,3.7,3
2020/5/24 3:18,2.4,2,2.4,2,4.3,3
2020/5/24 3:19,2.4,2,2.4,2,2.7,3
2020/5/24 3:20,2.4,2,2.4,2,3.5,2
2020/5/24 3:21,2.3,2,2.3,2,3.7,2
2020/5/24 3:22,2.3,2,2.3,2,2.9,3
2020/5/24 3:23,2.2,2,2.3,2,2.2,2
2020/5/24 3:24,2.2,2,2.2,2,3.6,3
2020/5/24 3:25,2.1,2,2.2,2,3.2,3
2020/5/24 3:26,2.1,2,2.2,2,4.4,3
2020/5/24 3:27,2.1,2,2.1,2,3.5,4
2020/5/24 3:28,2.1,2,2.1,2,4.4,3
2020/5/24 3:29,2.1,3,2.1,3,3,3
2020/5/24 3:30,2.1,3,2.1,2,3.6,3
2020/5/24 3:31,2,3,2.1,2,2.9,2
2020/5/24 3:32,2.2,3,2.2,2,4.2,4
2020/5/24 3:33,2.3,3,2.3,3,3.8,4
2020/5/24 3:34,2.3,3,2.3,3,3,3
2020/5/24 3:35,2.3,3,2.3,3,3.1,3
2020/5/24 3:36,2.3,3,2.3,3,3,3
2020/5/24 3:37,2.2,3,2.3,3,2.6,3
2020/5/24 3:38,2.1,3,2.2,3,3.2,3
2020/5/24 3:39,2.2,3,2.2,3,3.5,3
2020/5/24 3:40,2.2,3,2.2,3,3.6,2
2020/5/24 3:41,2.2,3,2.2,3,3.2,2
2020/5/24 3:42,2.1,2,2.2,3,2.7,2
2020/5/24 3:43,2,2,2.1,3,3.2,2
2020/5/24 3:44,2.1,2,2.1,3,5.6,2
2020/5/24 3:45,2.2,2,2.2,3,4.5,3
2020/5/24 3:46,2.2,2,2.2,3,3.1,5
2020/5/24 3:47,2.3,2,2.3,2,3.8,3
2020/5/24 3:48,2.3,2,2.4,2,3.6,2
2020/5/24 3:49,2.4,2,2.4,2,3.7,1
2020/5/24 3:50,2.5,3,2.5,2,4.1,3
2020/5/24 3:51,2.6,3,2.6,3,4.3,3
2020/5/24 3:52,2.6,3,2.6,3,2.9,3
2020/5/24 3:53,2.5,3,2.6,3,2.7,2
2020/5/24 3:54,2.4,3,2.5,3,3,2
2020/5/24 3:55,2.2,3,2.3,3,2.6,2
2020/5/24 3:56,2.2,3,2.2,3,3.2,2
2020/5/24 3:57,2.1,2,2.2,3,3.3,2
2020/5/24 3:58,2.1,3,2.1,3,3.7,3
2020/5/24 3:59,2.2,3,2.2,3,3.7,3
2020/5/24 4:00,2.1,2,2.2,3,3.1,3
2020/5/24 4:01,2,2,2.1,3,2.9,2
2020/5/24 4:02,1.9,2,2,3,2.5,3
2020/5/24 4:03,2,2,2,3,3.3,3
2020/5/24 4:04,2,2,2,3,3.3,3
2020/5/24 4:05,2.1,2,2.1,3,3.7,2
2020/5/24 4:06,2.2,2,2.2,3,3.8,2
2020/5/24 4:07,2.2,2,2.2,3,3,3
2020/5/24 4:08,2.2,2,2.2,3,3.1,2
2020/5/24 4:09,2.1,2,2.2,3,3.2,3
2020/5/24 4:10,2,2,2.1,2,2.5,1
2020/5/24 4:11,2.1,2,2.1,2,3.1,3
2020/5/24 4:12,2.2,3,2.2,2,3.2,4
2020/5/24 4:13,2.1,3,2.2,2,2.6,3
2020/5/24 4:14,2.2,3,2.2,2,2.7,3
2020/5/24 4:15,2.1,3,2.2,2,2.4,3
2020/5/24 4:16,2.1,3,2.1,2,3.9,3
2020/5/24 4:17,2.1,3,2.1,2,3.7,3
2020/5/24 4:18,2,3,2.1,2,2,2
2020/5/24 4:19,2,3,2,3,3.3,3
2020/5/24 4:20,2.1,3,2.1,3,3.6,2
2020/5/24 4:21,2.1,3,2.1,3,3.7,3
2020/5/24 4:22,2.1,3,2.1,3,3.8,3
2020/5/24 4:23,2.2,3,2.2,3,3.9,3
2020/5/24 4:24,2.2,3,2.2,3,3,3
2020/5/24 4:25,2.2,3,2.2,3,2.2,3
2020/5/24 4:26,2.1,3,2.2,3,2.6,2
2020/5/24 4:27,2,3,2.1,3,2.7,3
2020/5/24 4:28,2.2,3,2.2,3,3.5,3
2020/5/24 4:29,2.2,3,2.2,3,3.7,3
2020/5/24 4:30,2.2,3,2.2,3,3,3
2020/5/24 4:31,2.2,3,2.2,3,3.8,4
2020/5/24 4:32,2,3,2.2,3,2,4
2020/5/24 4:33,1.9,3,2,3,2.4,2
2020/5/24 4:34,1.9,3,1.9,3,3.3,2
2020/5/24 4:35,2,3,2,3,3.7,3
2020/5/24 4:36,2.1,3,2.1,3,3.6,4
2020/5/24 4:37,2.1,3,2.1,3,2,3
2020/5/24 4:38,2,3,2.1,3,2.2,5
2020/5/24 4:39,2,3,2.1,3,2.6,5
2020/5/24 4:40,1.9,3,2,3,1.6,3
2020/5/24 4:41,1.7,3,1.9,3,1.3,2
2020/5/24 4:42,1.6,3,1.7,3,1.6,3
2020/5/24 4:43,1.7,3,1.7,3,2.2,3
2020/5/24 4:44,1.6,3,1.7,3,2.5,3
2020/5/24 4:45,1.5,3,1.6,3,2.2,2
2020/5/24 4:46,1.4,3,1.5,3,2.4,3
2020/5/24 4:47,1.4,3,1.4,3,2.5,3
2020/5/24 4:48,1.4,3,1.4,3,2.9,3
2020/5/24 4:49,1.4,3,1.4,3,2.4,3
2020/5/24 4:50,1.5,3,1.5,3,2.1,3
2020/5/24 4:51,1.6,3,1.6,3,3.2,3
2020/5/24 4:52,1.7,3,1.7,3,3.2,3
2020/5/24 4:53,1.8,3,1.8,3,3.3,3
2020/5/24 4:54,1.9,3,1.9,3,3.9,3
2020/5/24 4:55,1.9,3,1.9,3,2.1,3
2020/5/24 4:56,1.9,3,2,3,3,4
2020/5/24 4:57,1.9,3,1.9,3,2.5,5
2020/5/24 4:58,2,3,2,3,3.1,6
2020/5/24 4:59,2,4,2,3,2.6,5
2020/5/24 5:00,2,4,2,3,2.9,5
2020/5/24 5:01,2,4,2,3,2,5
2020/5/24 5:02,1.9,4,2,3,1.6,4
2020/5/24 5:03,1.7,4,1.8,3,1.9,5
2020/5/24 5:04,1.5,4,1.7,3,1.4,1
2020/5/24 5:05,1.5,4,1.5,3,1.1,4
2020/5/24 5:06,1.3,4,1.5,3,0.9,6
2020/5/24 5:07,1.4,4,1.4,3,2.7,3
2020/5/24 5:08,1.3,4,1.4,3,2.7,3
2020/5/24 5:09,1.4,4,1.4,4,2.9,5
2020/5/24 5:10,1.4,4,1.4,4,3.3,5
2020/5/24 5:11,1.5,4,1.5,4,3.9,2
2020/5/24 5:12,1.7,4,1.7,4,3.8,4
2020/5/24 5:13,1.7,4,1.7,4,2.5,6
2020/5/24 5:14,1.7,4,1.8,4,1.6,3
2020/5/24 5:15,1.8,4,1.8,4,2.2,3
2020/5/24 5:16,2,4,2,4,2.2,3
2020/5/24 5:17,1.9,4,2,4,2.7,4
2020/5/24 5:18,1.7,4,1.9,4,1.1,4
2020/5/24 5:19,1.6,4,1.7,4,2.4,4
2020/5/24 5:20,1.5,4,1.6,4,2.6,5
2020/5/24 5:21,1.5,4,1.6,4,2.2,5
2020/5/24 5:22,1.4,4,1.5,4,1.8,6
2020/5/24 5:23,1.3,4,1.4,4,2.2,4
2020/5/24 5:24,1.4,4,1.4,4,2.4,4
2020/5/24 5:25,1.4,4,1.4,4,2.1,5
2020/5/24 5:26,1.4,4,1.4,4,2.4,2
2020/5/24 5:27,1.4,4,1.4,4,2.7,3
2020/5/24 5:28,1.6,4,1.6,4,3.2,3
2020/5/24 5:29,1.7,4,1.7,4,3.1,4
2020/5/24 5:30,1.7,4,1.7,4,3.5,5
2020/5/24 5:31,1.7,4,1.8,4,2.6,5
2020/5/24 5:32,1.8,4,1.8,4,2.9,3
2020/5/24 5:33,1.9,4,1.9,4,2.6,3
2020/5/24 5:34,1.8,4,1.9,4,2.2,3
2020/5/24 5:35,1.8,4,1.8,4,2,5
2020/5/24 5:36,1.8,4,1.8,4,2.2,5
2020/5/24 5:37,1.8,4,1.8,4,2,4
2020/5/24 5:38,1.8,4,1.8,4,3.1,5
2020/5/24 5:39,1.7,4,1.8,4,2.9,4
2020/5/24 5:40,1.6,4,1.7,4,2.2,6
2020/5/24 5:41,1.6,4,1.6,4,2.7,5
2020/5/24 5:42,1.6,4,1.6,4,2.6,5
2020/5/24 5:43,1.7,5,1.7,4,3.3,4
2020/5/24 5:44,1.7,5,1.7,4,2.5,4
2020/5/24 5:45,1.8,4,1.8,4,3.1,3
2020/5/24 5:46,1.8,4,1.8,4,2.6,4
2020/5/24 5:47,1.9,5,1.9,4,2.7,6
2020/5/24 5:48,1.8,4,1.9,4,2.4,5
2020/5/24 5:49,1.8,4,1.8,4,2.1,4
2020/5/24 5:50,1.8,4,1.8,4,3.3,3
2020/5/24 5:51,1.9,4,1.9,4,3.6,3
2020/5/24 5:52,1.8,4,1.9,4,1.6,3
2020/5/24 5:53,1.7,4,1.8,4,2.7,4
2020/5/24 5:54,1.8,4,1.8,4,2.5,4
2020/5/24 5:55,1.7,4,1.8,4,2,4
2020/5/24 5:56,1.6,4,1.7,4,1.4,4
2020/5/24 5:57,1.5,4,1.5,5,2.2,5
2020/5/24 5:58,1.5,4,1.5,4,2.4,6
2020/5/24 5:59,1.5,4,1.5,4,2.2,6
2020/5/24 6:00,1.5,5,1.5,4,2.4,5
2020/5/24 6:01,1.5,5,1.5,4,2.1,5
2020/5/24 6:02,1.5,5,1.5,4,2.1,4
2020/5/24 6:03,1.5,5,1.5,4,2.5,6
2020/5/24 6:04,1.4,5,1.5,4,1.8,4
2020/5/24 6:05,1.5,5,1.5,4,3.5,4
2020/5/24 6:06,1.6,4,1.6,5,2.7,3
2020/5/24 6:07,1.7,4,1.7,4,2.2,5
2020/5/24 6:08,1.7,4,1.7,4,2.6,3
2020/5/24 6:09,1.7,4,1.7,4,2.6,3
2020/5/24 6:10,1.8,4,1.8,4,2.7,3
2020/5/24 6:11,1.8,4,1.8,4,2.7,3
2020/5/24 6:12,1.9,4,1.9,4,3.2,3
2020/5/24 6:13,2,4,2,4,3.1,5
2020/5/24 6:14,2,4,2,4,2.2,3
2020/5/24 6:15,1.9,4,2,4,1.9,4
2020/5/24 6:16,1.9,3,1.9,4,3.9,3
2020/5/24 6:17,2,3,2,4,3.6,5
2020/5/24 6:18,2.1,4,2.1,3,3.3,3
2020/5/24 6:19,2.2,4,2.2,4,3.1,5
2020/5/24 6:20,2.1,4,2.2,4,2.1,5
2020/5/24 6:21,2.1,4,2.1,4,2.9,4
2020/5/24 6:22,2,3,2.1,4,2.9,2
2020/5/24 6:23,2,3,2,4,3.1,3
2020/5/24 6:24,2,3,2,4,3.5,4
2020/5/24 6:25,2.1,4,2.1,4,2.7,4
2020/5/24 6:26,2.2,4,2.2,4,3.2,4
2020/5/24 6:27,2.1,4,2.2,4,3.1,5
2020/5/24 6:28,2,4,2.1,4,2,5
2020/5/24 6:29,1.9,4,2,4,2.1,5
2020/5/24 6:30,1.9,4,1.9,4,2.7,5
2020/5/24 6:31,2,4,2,4,3.2,4
2020/5/24 6:32,2,4,2,4,3,4
2020/5/24 6:33,1.9,4,2,4,2.6,8
2020/5/24 6:34,1.8,4,1.9,4,1.5,4
2020/5/24 6:35,1.7,4,1.8,4,2.4,5
2020/5/24 6:36,1.7,5,1.7,4,2.6,5
2020/5/24 6:37,1.7,5,1.7,4,2.4,4
2020/5/24 6:38,1.6,5,1.7,4,2.1,4
2020/5/24 6:39,1.6,5,1.6,4,2.7,4
2020/5/24 6:40,1.7,5,1.7,4,2.7,5
2020/5/24 6:41,1.6,5,1.7,4,2.2,4
2020/5/24 6:42,1.6,5,1.6,4,2.2,6
2020/5/24 6:43,1.6,5,1.6,4,1.9,5
2020/5/24 6:44,1.6,5,1.6,4,2,6
2020/5/24 6:45,1.5,5,1.6,5,1.3,5
2020/5/24 6:46,1.5,5,1.5,5,2.2,5
2020/5/24 6:47,1.4,5,1.5,5,1.9,7
2020/5/24 6:48,1.5,5,1.5,5,2.9,6
2020/5/24 6:49,1.5,5,1.6,5,3.2,7
2020/5/24 6:50,1.6,5,1.6,5,4.2,6
2020/5/24 6:51,1.7,6,1.7,5,3,6
2020/5/24 6:52,1.7,6,1.7,5,2.7,6
2020/5/24 6:53,1.7,6,1.7,5,2,6
2020/5/24 6:54,1.8,6,1.8,6,3.1,4
2020/5/24 6:55,1.9,6,1.9,6,3.6,5
2020/5/24 6:56,1.9,6,1.9,6,2.4,5
2020/5/24 6:57,2,5,2,6,2.5,5
2020/5/24 6:58,2,5,2,6,3.3,6
2020/5/24 6:59,2.1,5,2.1,5,5,5
2020/5/24 7:00,1.9,5,2.1,5,2.6,5
2020/5/24 7:01,1.9,5,1.9,5,2.9,5
2020/5/24 7:02,1.9,5,1.9,5,3.2,4
2020/5/24 7:03,1.9,5,1.9,5,2.6,5
2020/5/24 7:04,1.8,5,1.9,5,1.4,6
2020/5/24 7:05,1.7,5,1.8,5,2.6,6
2020/5/24 7:06,1.7,5,1.7,5,3,4
2020/5/24 7:07,1.8,5,1.8,5,3.7,5
2020/5/24 7:08,1.8,5,1.9,5,3.3,5
2020/5/24 7:09,1.8,5,1.8,5,4.4,5
2020/5/24 7:10,2,5,2,5,3.9,5
2020/5/24 7:11,2,5,2,5,2.7,5
2020/5/24 7:12,1.9,5,2,5,1.6,4
2020/5/24 7:13,1.9,5,1.9,5,3.8,5
2020/5/24 7:14,2.2,5,2.2,5,4.8,4
2020/5/24 7:15,2.3,5,2.3,5,3.2,4
2020/5/24 7:16,2.3,5,2.3,5,2.9,5
2020/5/24 7:17,2.3,5,2.3,5,4.4,5
2020/5/24 7:18,2.4,5,2.4,5,5,4
2020/5/24 7:19,2.4,5,2.5,5,4.8,4
2020/5/24 7:20,2.3,5,2.4,5,3.5,5
2020/5/24 7:21,2.3,5,2.3,5,2.2,5
2020/5/24 7:22,2.4,5,2.4,5,4.1,7
2020/5/24 7:23,2.5,5,2.5,5,3.5,8
2020/5/24 7:24,2.3,5,2.5,5,2.5,6
2020/5/24 7:25,2.2,6,2.3,5,2.7,7
2020/5/24 7:26,2.2,6,2.2,5,3.5,6
2020/5/24 7:27,2.2,6,2.3,5,3.2,7
2020/5/24 7:28,2.1,6,2.2,5,3.7,5
2020/5/24 7:29,2.2,6,2.2,5,4.1,4
2020/5/24 7:30,2.2,6,2.2,5,3.9,4
2020/5/24 7:31,2.3,6,2.3,5,3.3,5
2020/5/24 7:32,2.2,6,2.3,5,3.7,6
2020/5/24 7:33,2.2,6,2.2,5,3.7,6
2020/5/24 7:34,2.3,5,2.3,5,3.1,5
2020/5/24 7:35,2.3,5,2.3,6,2,4
2020/5/24 7:36,2.1,5,2.2,6,2.6,7
2020/5/24 7:37,2.1,5,2.1,6,2.5,4
2020/5/24 7:38,2,5,2.1,6,2.4,5
2020/5/24 7:39,1.9,6,2,6,3.7,8
2020/5/24 7:40,1.9,6,1.9,6,4.2,7
2020/5/24 7:41,2,6,2,6,4.2,7
2020/5/24 7:42,1.9,6,2,6,3.8,8
2020/5/24 7:43,1.8,6,1.9,6,2.7,7
2020/5/24 7:44,1.8,6,1.8,5,2.2,6
2020/5/24 7:45,1.9,6,1.9,5,2.4,5
2020/5/24 7:46,1.9,6,1.9,5,2.2,5
2020/5/24 7:47,1.8,6,1.9,5,2,4
2020/5/24 7:48,1.9,6,1.9,5,3.3,5
2020/5/24 7:49,1.9,6,1.9,6,2.7,5
2020/5/24 7:50,1.9,6,1.9,6,3.7,5
2020/5/24 7:51,1.8,5,1.9,6,2.6,5
2020/5/24 7:52,1.7,5,1.7,6,2.2,4
2020/5/24 7:53,1.7,5,1.7,6,2.9,6
2020/5/24 7:54,1.8,5,1.8,6,3.6,6
2020/5/24 7:55,1.8,5,1.9,6,3,6
2020/5/24 7:56,1.9,5,1.9,6,3.6,5
2020/5/24 7:57,2,6,2,5,2.7,7
2020/5/24 7:58,2,6,2,5,3.2,6
2020/5/24 7:59,2,6,2.1,6,3.5,5
2020/5/24 8:00,2,6,2,6,2.9,4
2020/5/24 8:01,2,6,2,6,2.9,4
2020/5/24 8:02,2.1,6,2.1,6,3.7,6
2020/5/24 8:03,2.1,6,2.2,6,3,6
2020/5/24 8:04,2,6,2.1,6,2.4,6
2020/5/24 8:05,2,5,2.1,6,2.9,4
2020/5/24 8:06,2,5,2,6,2.9,5
2020/5/24 8:07,2.1,5,2.1,6,3.7,6
2020/5/24 8:08,2.1,5,2.1,6,3,6
2020/5/24 8:09,2.1,6,2.1,6,3.3,7
2020/5/24 8:10,2,6,2.1,6,1.8,7
2020/5/24 8:11,2,6,2,6,2.4,7
2020/5/24 8:12,1.9,6,2,6,2.7,3
2020/5/24 8:13,2,6,2,6,3.7,5
2020/5/24 8:14,2.1,6,2.1,5,3.9,5
2020/5/24 8:15,2.2,6,2.2,6,3.5,6
2020/5/24 8:16,2.1,6,2.2,6,3.1,6
2020/5/24 8:17,2.1,6,2.1,6,2.6,6
2020/5/24 8:18,2,6,2.1,6,3.2,6
2020/5/24 8:19,2,6,2,6,2.9,5
2020/5/24 8:20,2,5,2,6,2.4,5
2020/5/24 8:21,2.1,5,2.1,6,3.3,3
2020/5/24 8:22,2.2,5,2.2,6,3.7,4
2020/5/24 8:23,2.2,5,2.2,6,4.9,3
2020/5/24 8:24,2.2,5,2.2,6,4.1,4
2020/5/24 8:25,2.2,5,2.2,6,4.3,5
2020/5/24 8:26,2.3,5,2.3,5,3.2,4
2020/5/24 8:27,2.3,5,2.3,5,3.5,6
2020/5/24 8:28,2.3,5,2.3,5,2.9,5
2020/5/24 8:29,2.3,5,2.3,5,3.2,4
2020/5/24 8:30,2.3,5,2.3,5,2.6,5
2020/5/24 8:31,2.3,5,2.4,5,2,6
2020/5/24 8:32,2.2,5,2.2,5,2.6,5
2020/5/24 8:33,2.1,5,2.2,5,2.9,6
2020/5/24 8:34,2,6,2.1,5,3.6,6
2020/5/24 8:35,1.9,6,2,5,3.1,6
2020/5/24 8:36,1.9,6,1.9,5,3.5,7
2020/5/24 8:37,1.8,6,1.9,5,1.9,6
2020/5/24 8:38,1.8,6,1.8,5,3.2,6
2020/5/24 8:39,1.9,6,1.9,5,3.5,5
2020/5/24 8:40,1.9,6,1.9,5,3.2,5
2020/5/24 8:41,2,6,2,5,2.4,6
2020/5/24 8:42,2.1,6,2.1,5,3.2,5
2020/5/24 8:43,2,6,2.1,6,2.9,6
2020/5/24 8:44,2,6,2,6,2,6
2020/5/24 8:45,1.9,6,1.9,6,1.9,7
2020/5/24 8:46,1.7,6,1.9,6,1.6,8
2020/5/24 8:47,1.7,6,1.7,6,1,5
2020/5/24 8:48,1.6,6,1.7,6,2,9
2020/5/24 8:49,1.5,6,1.6,6,2.1,8
2020/5/24 8:50,1.3,6,1.5,6,1.6,6
2020/5/24 8:51,1.2,7,1.3,6,0.9,10
2020/5/24 8:52,1,7,1.2,6,1.3,7
2020/5/24 8:53,1,7,1,6,2.6,9
2020/5/24 8:54,1,8,1,6,2.5,9
2020/5/24 8:55,0.9,8,1,6,1.1,6
2020/5/24 8:56,1,7,1,6,1.6,5
2020/5/24 8:57,1.1,7,1.1,6,3.5,7
2020/5/24 8:58,1.2,7,1.2,6,3.5,5
2020/5/24 8:59,1.3,7,1.3,6,3.9,7
2020/5/24 9:00,1.5,7,1.5,7,3.2,7
2020/5/24 9:01,1.7,7,1.7,7,3.5,6
2020/5/24 9:02,1.9,7,1.9,7,4.4,5
2020/5/24 9:03,2.1,6,2.1,6,4.9,5
2020/5/24 9:04,2.2,6,2.2,6,4.3,6
2020/5/24 9:05,2.5,6,2.5,6,4.7,6
2020/5/24 9:06,2.6,6,2.6,6,3.7,6
2020/5/24 9:07,2.6,6,2.6,6,2.5,6
2020/5/24 9:08,2.5,6,2.6,6,2.7,4
2020/5/24 9:09,2.5,6,2.6,6,3.5,5
2020/5/24 9:10,2.5,5,2.5,6,3.3,5
2020/5/24 9:11,2.6,5,2.6,6,4.1,6
2020/5/24 9:12,2.6,5,2.6,6,3.5,6
2020/5/24 9:13,2.4,5,2.6,6,3,5
2020/5/24 9:14,2.4,6,2.4,6,4.1,8
2020/5/24 9:15,2.2,6,2.4,6,3.3,8
2020/5/24 9:16,2.2,6,2.3,6,3.5,6
2020/5/24 9:17,2.3,6,2.3,6,3.1,6
2020/5/24 9:18,2.3,6,2.3,6,3.3,8
2020/5/24 9:19,2.2,7,2.3,5,3.2,9
2020/5/24 9:20,2.2,7,2.3,5,3.1,6
2020/5/24 9:21,2.1,7,2.2,5,3.1,7
2020/5/24 9:22,2.1,7,2.1,5,3.7,7
2020/5/24 9:23,2,7,2.1,5,3,6
2020/5/24 9:24,1.9,7,2,6,2.4,5
2020/5/24 9:25,1.9,7,1.9,6,2.2,6
2020/5/24 9:26,1.8,7,1.9,6,2.1,7
2020/5/24 9:27,1.6,7,1.7,6,2.1,6
2020/5/24 9:28,1.7,7,1.7,6,3.1,8
2020/5/24 9:29,1.6,7,1.6,7,2.5,6
2020/5/24 9:30,1.5,7,1.6,7,2.4,8
2020/5/24 9:31,1.5,7,1.5,7,2.2,8
2020/5/24 9:32,1.5,7,1.5,7,2.7,8
2020/5/24 9:33,1.5,7,1.5,7,3.1,9
2020/5/24 9:34,1.6,7,1.6,7,3.9,8
2020/5/24 9:35,1.6,7,1.6,7,1.8,8
2020/5/24 9:36,1.5,7,1.6,7,0.6,4
2020/5/24 9:37,1.6,7,1.6,7,4.2,6
2020/5/24 9:38,1.7,7,1.7,7,3.5,7
2020/5/24 9:39,1.8,7,1.8,7,3.1,7
2020/5/24 9:40,1.9,7,1.9,7,3.2,6
2020/5/24 9:41,1.9,7,1.9,7,2.4,6
2020/5/24 9:42,1.9,7,1.9,7,2.5,7
2020/5/24 9:43,1.9,7,1.9,7,2.5,8
2020/5/24 9:44,1.7,7,1.9,7,3.7,9
2020/5/24 9:45,1.9,7,1.9,7,3.7,9
2020/5/24 9:46,2.1,7,2.1,7,2.5,7
2020/5/24 9:47,2,7,2.1,7,2.5,7
2020/5/24 9:48,1.8,7,1.9,7,2.5,8
2020/5/24 9:49,1.8,8,1.8,7,2.4,8
2020/5/24 9:50,1.6,8,1.8,7,1.8,9
2020/5/24 9:51,1.7,8,1.7,7,2.4,9
2020/5/24 9:52,1.7,8,1.7,7,3.1,11
2020/5/24 9:53,1.6,8,1.6,7,2.7,9
2020/5/24 9:54,1.7,9,1.7,7,2.5,8
2020/5/24 9:55,1.6,9,1.7,7,2.9,9
2020/5/24 9:56,1.7,9,1.7,7,3.6,10
2020/5/24 9:57,1.6,9,1.6,7,1.6,10
2020/5/24 9:58,1.6,9,1.6,7,2.6,8
2020/5/24 9:59,1.6,9,1.6,8,4.2,8
2020/5/24 10:00,1.7,9,1.7,8,3.8,9
2020/5/24 10:01,1.8,9,1.8,9,3.7,8
2020/5/24 10:02,1.7,9,1.8,9,2.1,8
2020/5/24 10:03,1.9,9,1.9,9,4.4,9
2020/5/24 10:04,1.9,9,1.9,9,3.7,7
2020/5/24 10:05,2,9,2,9,4.7,9
2020/5/24 10:06,1.9,9,2,9,1.6,7
2020/5/24 10:07,1.9,8,1.9,9,2.2,8
2020/5/24 10:08,1.9,8,1.9,9,2,8
2020/5/24 10:09,1.8,8,1.9,9,3.2,8
2020/5/24 10:10,1.8,8,1.8,9,3.2,8
2020/5/24 10:11,1.7,8,1.8,9,2.9,8
2020/5/24 10:12,1.7,8,1.7,9,2,9
2020/5/24 10:13,1.5,8,1.7,9,3.2,9
2020/5/24 10:14,1.6,8,1.6,9,3.9,9
2020/5/24 10:15,1.6,8,1.6,9,5.1,6
2020/5/24 10:16,1.9,8,1.9,9,6.1,6
2020/5/24 10:17,2.1,8,2.1,8,6.4,7
2020/5/24 10:18,2.2,8,2.2,8,7.7,7
2020/5/24 10:19,2.5,7,2.5,7,6.2,7
2020/5/24 10:20,2.6,7,2.6,7,5.8,7
2020/5/24 10:21,2.8,7,2.8,7,6.1,7
2020/5/24 10:22,3,7,3,7,5,7
2020/5/24 10:23,3.2,7,3.2,7,5.6,8
2020/5/24 10:24,3.3,7,3.3,7,8.3,9
2020/5/24 10:25,3.4,7,3.4,7,6.2,8
2020/5/24 10:26,3.4,7,3.5,7,5.7,6
2020/5/24 10:27,3.5,7,3.5,7,6.1,8
2020/5/24 10:28,3.8,7,3.8,7,9.3,7
2020/5/24 10:29,3.9,7,3.9,7,8.5,8
2020/5/24 10:30,4,7,4,7,7.6,7
2020/5/24 10:31,4,7,4,7,5.5,7
2020/5/24 10:32,4,7,4,7,6.3,8
2020/5/24 10:33,4,7,4,7,5.2,7
2020/5/24 10:34,3.9,7,4,7,6.5,8
2020/5/24 10:35,3.8,7,3.9,7,6.8,8
2020/5/24 10:36,3.7,8,3.8,7,5.2,6
2020/5/24 10:37,3.8,8,3.8,7,6.5,9
2020/5/24 10:38,3.5,8,3.8,7,5.5,8
2020/5/24 10:39,3.4,8,3.5,7,6.3,8
2020/5/24 10:40,3.2,8,3.4,7,4.8,8
2020/5/24 10:41,3.3,8,3.3,7,6.3,7
2020/5/24 10:42,3.3,8,3.3,7,6.2,8
2020/5/24 10:43,3.2,8,3.2,7,3.1,8
2020/5/24 10:44,3,8,3.1,7,2.4,9
2020/5/24 10:45,3,8,3,7,4.8,7
2020/5/24 10:46,3.2,8,3.2,8,6.9,8
2020/5/24 10:47,2.9,7,3.2,8,3.8,8
2020/5/24 10:48,3,7,3,8,6.7,6
2020/5/24 10:49,3.1,7,3.1,8,6.9,7
2020/5/24 10:50,3.2,7,3.2,8,5.6,6
2020/5/24 10:51,3,7,3.2,8,3.8,6
2020/5/24 10:52,2.9,7,2.9,8,4.7,7
2020/5/24 10:53,3.1,7,3.1,8,6.3,9
2020/5/24 10:54,3.2,7,3.2,8,3.5,7
2020/5/24 10:55,3.1,7,3.1,8,5.6,5
2020/5/24 10:56,3,7,3.1,7,5.1,3
2020/5/24 10:57,3,6,3,7,4.3,6
2020/5/24 10:58,2.8,7,3,7,4.4,6
2020/5/24 10:59,2.8,6,2.8,7,6.1,7
2020/5/24 11:00,2.7,6,2.8,7,5.8,6
2020/5/24 11:01,3,6,3,7,7.6,6
2020/5/24 11:02,3.3,6,3.3,6,7.8,5
2020/5/24 11:03,3.4,6,3.4,6,7,5
2020/5/24 11:04,3.8,6,3.8,6,9,5
2020/5/24 11:05,4.1,6,4.1,6,7.4,5
2020/5/24 11:06,4.2,6,4.2,6,7.6,5
2020/5/24 11:07,4.2,6,4.2,6,4.9,5
2020/5/24 11:08,4.3,6,4.3,6,4.5,5
2020/5/24 11:09,4.3,5,4.4,6,5.6,4
2020/5/24 11:10,4.4,5,4.4,6,7.5,7
2020/5/24 11:11,4.3,5,4.4,6,6.1,6
2020/5/24 11:12,4.1,5,4.3,6,5.5,6
2020/5/24 11:13,4.1,5,4.1,6,6.2,5
2020/5/24 11:14,3.9,5,4,6,6,6
2020/5/24 11:15,3.7,6,3.9,6,6.5,6
2020/5/24 11:16,3.5,6,3.7,6,4.1,6
2020/5/24 11:17,3.6,6,3.6,6,4.3,5
2020/5/24 11:18,3.8,6,3.8,6,8.3,6
2020/5/24 11:19,3.9,6,3.9,5,7.5,5
2020/5/24 11:20,3.8,6,3.9,5,5.4,8
2020/5/24 11:21,3.8,6,3.8,5,6.3,7
2020/5/24 11:22,3.7,6,3.8,5,6.9,8
2020/5/24 11:23,3.8,6,3.8,5,6.8,7
2020/5/24 11:24,3.6,6,3.8,5,4.5,9
2020/5/24 11:25,3.6,6,3.6,6,6.3,7
2020/5/24 11:26,3.7,6,3.7,6,5.5,5
2020/5/24 11:27,3.7,7,3.7,6,6.2,8
2020/5/24 11:28,3.6,7,3.7,6,6.7,9
2020/5/24 11:29,3.7,7,3.7,6,9.3,8
2020/5/24 11:30,4,7,4,7,8.4,8
2020/5/24 11:31,3.9,7,4,7,5.8,8
2020/5/24 11:32,4,7,4,7,6.2,5
2020/5/24 11:33,4,7,4,7,7.9,8
2020/5/24 11:34,4.4,7,4.4,7,8.2,7
2020/5/24 11:35,4.4,7,4.4,7,6.2,7
2020/5/24 11:36,4.5,7,4.5,7,9,8
2020/5/24 11:37,4.7,7,4.7,7,7.8,7
2020/5/24 11:38,4.5,7,4.7,7,3.9,6
2020/5/24 11:39,4.1,7,4.5,7,2.2,9
2020/5/24 11:40,3.7,7,4,7,3.6,7
2020/5/24 11:41,3.7,7,3.8,7,4.7,9
2020/5/24 11:42,3.6,7,3.7,7,4.9,6
2020/5/24 11:43,3.7,7,3.7,7,7.4,8
2020/5/24 11:44,3.5,7,3.7,7,7.1,9
2020/5/24 11:45,3.4,8,3.5,7,6.2,8
2020/5/24 11:46,3.4,8,3.5,7,7,8
2020/5/24 11:47,3.4,8,3.5,7,7.2,9
2020/5/24 11:48,3.8,8,3.8,7,8.7,8
2020/5/24 11:49,4.1,8,4.1,8,8.1,8
2020/5/24 11:50,4.3,8,4.3,8,7.2,8
2020/5/24 11:51,4.5,8,4.5,8,9.4,8
2020/5/24 11:52,4.6,8,4.6,8,6.3,7
2020/5/24 11:53,4.4,8,4.6,8,4.4,8